When you browse on this site, cookies collect data to enhance your experience and personalize the content and advertising you see.
Visit our Privacy Policy to learn more. By continuing to use the site, you agree to this use of cookies and data.
  • En España
  • Lista de países
  • Para 7 días
  • Temperatura del agua
  • El tiempo en el mapa
  • Informadores
  • user-avatar
    Iniciar sesión

    Tiempo cada hora Ganja

    Hoy, 5 Junio, Viernes

    Tiempo Temperatura Precipitaciones Viento Presión Humedad
    00:00 +22°C° 0 mm 3 mps 724 mmHg 63%
    01:00 +21°C° 0.1 mm 3 mps 724 mmHg 67%
    02:00 +20°C° 0.1 mm 3 mps 724 mmHg 72%
    03:00 +19°C° 0 mm 2 mps 724 mmHg 76%
    04:00 +20°C° 0 mm 3 mps 724 mmHg 76%
    05:00 +20°C° 0 mm 3 mps 725 mmHg 75%
    06:00 +20°C° 0 mm 4 mps 725 mmHg 75%
    07:00 +22°C° 0 mm 4 mps 725 mmHg 69%
    08:00 +23°C° 0 mm 4 mps 725 mmHg 64%
    09:00 +26°C° 0 mm 4 mps 725 mmHg 58%
    10:00 +27°C° 0.2 mm 4 mps 725 mmHg 54%
    11:00 +28°C° 0.2 mm 4 mps 725 mmHg 51%
    12:00 +29°C° 0.2 mm 4 mps 725 mmHg 47%
    13:00 +30°C° 0.3 mm 4 mps 725 mmHg 45%
    14:00 +30°C° 0.3 mm 3 mps 725 mmHg 42%
    15:00 +30°C° 0.3 mm 3 mps 725 mmHg 39%
    16:00 +30°C° 0.2 mm 3 mps 725 mmHg 42%
    17:00 +29°C° 0.2 mm 3 mps 725 mmHg 45%
    18:00 +28°C° 0.2 mm 3 mps 726 mmHg 48%
    19:00 +27°C° 0.1 mm 4 mps 726 mmHg 49%
    20:00 +26°C° 0.1 mm 4 mps 727 mmHg 51%
    21:00 +23°C° 0.1 mm 4 mps 727 mmHg 52%
    22:00 +22°C° 0.1 mm 3 mps 727 mmHg 54%
    23:00 +22°C° 0.1 mm 3 mps 728 mmHg 56%

    Mañana, 6 Junio, Sábado

    Tiempo Temperatura Precipitaciones Viento Presión Humedad
    00:00 +21°C° 0.1 mm 2 mps 728 mmHg 59%
    01:00 +20°C° 0 mm 2 mps 728 mmHg 61%
    02:00 +20°C° 0 mm 2 mps 728 mmHg 62%
    03:00 +20°C° 0 mm 1 mps 728 mmHg 64%
    04:00 +20°C° 0 mm 2 mps 728 mmHg 64%
    05:00 +20°C° 0 mm 2 mps 728 mmHg 63%
    06:00 +20°C° 0 mm 2 mps 729 mmHg 63%
    07:00 +21°C° 0 mm 2 mps 729 mmHg 60%
    08:00 +22°C° 0 mm 3 mps 729 mmHg 57%
    09:00 +24°C° 0 mm 3 mps 729 mmHg 54%
    10:00 +25°C° 0.1 mm 3 mps 729 mmHg 51%
    11:00 +26°C° 0.1 mm 2 mps 728 mmHg 48%
    12:00 +27°C° 0.1 mm 2 mps 728 mmHg 45%
    13:00 +28°C° 0.2 mm 2 mps 728 mmHg 44%
    14:00 +28°C° 0.2 mm 2 mps 728 mmHg 43%
    15:00 +29°C° 0.2 mm 3 mps 728 mmHg 41%
    16:00 +28°C° 0.1 mm 3 mps 728 mmHg 45%
    17:00 +28°C° 0.1 mm 3 mps 728 mmHg 48%
    18:00 +28°C° 0.1 mm 3 mps 728 mmHg 51%
    19:00 +26°C° 0 mm 3 mps 728 mmHg 53%
    20:00 +25°C° 0 mm 3 mps 728 mmHg 55%
    21:00 +24°C° 0 mm 3 mps 729 mmHg 57%
    22:00 +22°C° 0 mm 3 mps 729 mmHg 58%
    23:00 +22°C° 0 mm 3 mps 729 mmHg 60%

    Pasado mañana, 7 Junio, Domingo

    Tiempo Temperatura Precipitaciones Viento Presión Humedad
    00:00 +21°C° 0 mm 3 mps 729 mmHg 61%
    01:00 +21°C° 0 mm 3 mps 729 mmHg 62%
    02:00 +20°C° 0 mm 2 mps 728 mmHg 64%
    03:00 +20°C° 0 mm 2 mps 728 mmHg 65%
    04:00 +20°C° 0 mm 2 mps 728 mmHg 65%
    05:00 +21°C° 0 mm 1 mps 728 mmHg 65%
    06:00 +22°C° 0 mm 1 mps 728 mmHg 64%
    07:00 +23°C° 0 mm 1 mps 728 mmHg 63%
    08:00 +24°C° 0 mm 2 mps 728 mmHg 61%
    09:00 +25°C° 0 mm 2 mps 728 mmHg 59%
    10:00 +26°C° 0 mm 2 mps 728 mmHg 56%
    11:00 +27°C° 0 mm 2 mps 727 mmHg 53%
    12:00 +28°C° 0 mm 1 mps 727 mmHg 50%
    13:00 +29°C° 0 mm 2 mps 727 mmHg 47%
    14:00 +29°C° 0 mm 2 mps 727 mmHg 45%
    15:00 +30°C° 0 mm 2 mps 726 mmHg 42%
    16:00 +30°C° 0 mm 2 mps 726 mmHg 43%
    17:00 +30°C° 0 mm 2 mps 726 mmHg 44%
    18:00 +30°C° 0 mm 2 mps 726 mmHg 44%
    19:00 +28°C° 0 mm 2 mps 726 mmHg 48%
    20:00 +27°C° 0 mm 2 mps 726 mmHg 51%
    21:00 +25°C° 0 mm 2 mps 727 mmHg 54%
    22:00 +24°C° 0 mm 2 mps 727 mmHg 56%
    23:00 +22°C° 0 mm 3 mps 726 mmHg 57%

    8 Junio, Lunes

    Tiempo Temperatura Precipitaciones Viento Presión Humedad
    00:00 +22°C° 0 mm 3 mps 726 mmHg 58%
    01:00 +21°C° 0 mm 2 mps 726 mmHg 60%
    02:00 +21°C° 0 mm 2 mps 726 mmHg 61%
    03:00 +21°C° 0 mm 1 mps 725 mmHg 62%
    04:00 +22°C° 0 mm 1 mps 725 mmHg 62%
    05:00 +22°C° 0 mm 1 mps 725 mmHg 61%
    06:00 +23°C° 0 mm 1 mps 725 mmHg 61%
    07:00 +24°C° 0 mm 1 mps 725 mmHg 59%
    08:00 +25°C° 0 mm 1 mps 725 mmHg 56%
    09:00 +26°C° 0 mm 2 mps 725 mmHg 54%
    10:00 +27°C° 0 mm 2 mps 725 mmHg 51%
    11:00 +29°C° 0 mm 2 mps 725 mmHg 48%
    12:00 +30°C° 0 mm 2 mps 724 mmHg 45%
    13:00 +31°C° 0 mm 2 mps 724 mmHg 41%
    14:00 +31°C° 0 mm 3 mps 724 mmHg 38%
    15:00 +33°C° 0 mm 3 mps 723 mmHg 35%
    16:00 +33°C° 0 mm 3 mps 723 mmHg 36%
    17:00 +31°C° 0 mm 3 mps 723 mmHg 38%
    18:00 +31°C° 0 mm 3 mps 723 mmHg 39%
    19:00 +29°C° 0 mm 3 mps 724 mmHg 41%
    20:00 +27°C° 0 mm 3 mps 724 mmHg 43%
    21:00 +26°C° 0 mm 3 mps 725 mmHg 45%
    22:00 +25°C° 0 mm 3 mps 725 mmHg 46%
    23:00 +24°C° 0 mm 3 mps 724 mmHg 46%

    9 Junio, Martes

    Tiempo Temperatura Precipitaciones Viento Presión Humedad
    00:00 +22°C° 0 mm 3 mps 724 mmHg 47%
    01:00 +22°C° 0 mm 3 mps 724 mmHg 48%
    02:00 +21°C° 0 mm 2 mps 724 mmHg 50%
    03:00 +21°C° 0 mm 2 mps 724 mmHg 51%
    04:00 +22°C° 0 mm 1 mps 724 mmHg 52%
    05:00 +23°C° 0 mm 1 mps 725 mmHg 53%
    06:00 +23°C° 0 mm 1 mps 725 mmHg 53%
    07:00 +24°C° 0 mm 1 mps 725 mmHg 51%
    08:00 +26°C° 0 mm 1 mps 725 mmHg 48%
    09:00 +27°C° 0 mm 1 mps 725 mmHg 45%
    10:00 +28°C° 0 mm 2 mps 725 mmHg 42%
    11:00 +29°C° 0 mm 2 mps 725 mmHg 39%
    12:00 +30°C° 0 mm 3 mps 725 mmHg 36%
    13:00 +31°C° 0 mm 3 mps 725 mmHg 35%
    14:00 +33°C° 0 mm 4 mps 724 mmHg 34%
    15:00 +33°C° 0 mm 4 mps 724 mmHg 33%
    16:00 +33°C° 0.1 mm 4 mps 724 mmHg 36%
    17:00 +32°C° 0.1 mm 4 mps 724 mmHg 38%
    18:00 +30°C° 0.1 mm 4 mps 724 mmHg 41%
    19:00 +29°C° 0 mm 4 mps 724 mmHg 43%
    20:00 +27°C° 0 mm 3 mps 725 mmHg 46%
    21:00 +26°C° 0 mm 3 mps 725 mmHg 48%
    22:00 +25°C° 0 mm 3 mps 725 mmHg 47%
    23:00 +25°C° 0 mm 2 mps 725 mmHg 46%

    10 Junio, Miércoles

    Tiempo Temperatura Precipitaciones Viento Presión Humedad
    00:00 +24°C° 0 mm 2 mps 725 mmHg 46%
    01:00 +24°C° 0 mm 2 mps 725 mmHg 47%
    02:00 +23°C° 0 mm 2 mps 725 mmHg 49%
    03:00 +23°C° 0 mm 1 mps 725 mmHg 50%
    04:00 +23°C° 0 mm 1 mps 725 mmHg 51%
    05:00 +24°C° 0 mm 1 mps 725 mmHg 52%
    06:00 +24°C° 0 mm 1 mps 726 mmHg 53%
    07:00 +25°C° 0 mm 1 mps 726 mmHg 49%
    08:00 +26°C° 0 mm 1 mps 726 mmHg 46%
    09:00 +28°C° 0 mm 1 mps 726 mmHg 42%
    10:00 +29°C° 0.1 mm 2 mps 726 mmHg 39%
    11:00 +30°C° 0.1 mm 3 mps 726 mmHg 36%
    12:00 +33°C° 0.1 mm 4 mps 726 mmHg 32%
    13:00 +33°C° 0.1 mm 4 mps 725 mmHg 32%
    14:00 +33°C° 0.1 mm 4 mps 725 mmHg 32%
    15:00 +34°C° 0.1 mm 4 mps 725 mmHg 32%
    16:00 +33°C° 0 mm 4 mps 725 mmHg 35%
    17:00 +32°C° 0 mm 4 mps 725 mmHg 38%
    18:00 +32°C° 0 mm 4 mps 725 mmHg 41%
    19:00 +29°C° 0 mm 4 mps 725 mmHg 41%
    20:00 +28°C° 0 mm 4 mps 726 mmHg 41%
    21:00 +27°C° 0 mm 4 mps 726 mmHg 42%
    22:00 +26°C° 0 mm 4 mps 726 mmHg 41%
    23:00 +26°C° 0 mm 3 mps 726 mmHg 41%
    Mostrar más